Regional Weather Roundup
Issued by NWS Green Bay, WI

Home | Current Version | Previous Version | Text Only | Print | Product List | Glossary On
Versions: 1 2 3 4 5 6 7 8 9 10 11 12 13 14 15 16 17 18 19 20 21 22 23 24 25 26 27 28 29 30 31 32 33 34 35 36 37 38 39 40 41 42 43 44 45 46 47 48 49 50
000
ASUS43 KGRB 290411
RWRGRB

NORTH-CENTRAL AND NORTHEAST WISCONSIN REGIONAL WEATHER ROUNDUP
NATIONAL WEATHER SERVICE GREEN BAY WI
1100 PM CDT TUE JUL 28 2015

WIZ005-009-010>012-018-019-290500-
NORTH CENTRAL WISCONSIN

CITY           SKY/WX    TMP DP  RH WIND       PRES   REMARKS
IRONWOOD       CLEAR     75  70  83 S9        29.79S
MANITOWISH WTR CLOUDY    74  71  89 S8        29.87S
ARBOR VITAE    MOCLDY    77  72  84 S9        29.88S
EAGLE RIVER    PTCLDY    72  65  80 S3        29.89R
LAND O LAKES   PTCLDY    73  67  80 S6        29.90R
RHINELANDER    MOCLDY    73  68  84 S5        29.91R
PHILLIPS       CLOUDY    75  71  88 S9        29.87R
ANTIGO         MOCLDY    70  68  95 S6        29.92S
TOMAHAWK       MOCLDY    73  69  88 CALM      29.90S
MERRILL        NOT AVBL
$$

WIZ013-073-290500-
NORTHEAST WISCONSIN

CITY           SKY/WX    TMP DP  RH WIND       PRES   REMARKS
IRON MOUNTAIN  CLEAR     70  64  81 SE3       29.89F
MARINETTE      PTCLDY    75  64  69 S7        29.88S
OCONTO         PTCLDY    74  69  83 S5        29.89S
$$

WIZ017-030-035>037-045-290500-
CENTRAL WISCONSIN

CITY           SKY/WX    TMP DP  RH WIND       PRES   REMARKS
MEDFORD        CLOUDY    74  71  89 S10       29.91R
WAUSAU         MOCLDY    76  70  82 SW7       29.89R
MOSINEE        CLOUDY    73  70  88 S8        29.92R
MARSHFIELD     CLOUDY    75  69  81 S7        29.91R
WISC RAPIDS    CLOUDY    76  70  82 S7        29.92R
STEVENS POINT  CLOUDY    73  69  87 SW8       29.91S
WAUPACA        MOCLDY    75  73  93 CALM      29.91R
SHAWANO        MOCLDY    75  67  75 S3        29.90R
CLINTONVILLE   MOCLDY    72  64  78 S5        29.89S
$$

WIZ038-039-048-051-290500-
FOX VALLEY

CITY           SKY/WX    TMP DP  RH WIND       PRES   REMARKS
NWS GREEN BAY  PTCLDY    74  68  81 S6        29.90S
APPLETON       MOCLDY    73  70  88 VRB5      29.91S
OSHKOSH        MOCLDY    73  69  87 SW3       29.91R
FOND DU LAC    MOCLDY    74  71  91 S6        29.92R
$$

WIZ022-050-052-290500-
EAST CENTRAL WISCONSIN

CITY           SKY/WX    TMP DP  RH WIND       PRES   REMARKS
STURGEON BAY   PTCLDY    72  63  73 S9        29.92F
MANITOWOC      PTCLDY    72  67  84 MISG      29.92S
SHEBOYGAN      PTCLDY    70  66  87 SW3       29.92F
$$

LMZ563-521-522-541>543-290500-
LAKESHORE

STATION/POSITION TIME  TEMP    WIND        PRES    VSBY  WAVE
                       AIR SEA DIR/SP/G                  HT/PER
                 (UTC) (F)     (DEG/KT/KT) (MB)    (MI)  (FT/S)
SHEBOYGAN LKSHOR 0400   72     190/  9/  9 1013.3F
KEWAUNEE LKSHORE 0300   64     180/  5/  6 1012.5F
NORTHPORT PIER   0300   74     170/  5/ 10 1012.5F
N MID LAKE BUOY  0350   72 71  170/ 10/ 12 1012.4F         1
CHAMBERS ISLAND  0300   77     170/  4/ 11 1012.2F
MENOMINEE LKSHOR 0300   75     180/  6/ 10 1013.0F
$$


USA.gov is the U.S. government's official web portal to all federal, state and local government web resources and services.